Regional Weather Roundup
Issued by NWS Memphis, TN

Home | Current Version | Previous Version | Text Only | Print | Product List | Glossary On
Versions: 1 2 3 4 5 6 7 8 9 10 11 12 13 14 15 16 17 18 19 20 21 22 23 24 25 26 27 28 29 30 31 32 33 34 35 36 37 38 39 40 41 42 43 44 45 46 47 48 49 50
000
ASUS44 KMEG 252110
RWRMEG
MEMPHIS CWA HOURLY WEATHER ROUNDUP
NATIONAL WEATHER SERVICE MEMPHIS TN
300 PM CST THU DEC 25 2014

...WEST TENNESSEE...

CITY           SKY/WX    TMP DP  RH WIND       PRES   REMARKS
MEMPHIS INTL   MOSUNNY   54  32  43 S17       30.13F
NWS MEMPHIS      N/A     55 N/A N/A MISG        N/A
JACKSON        SUNNY     53  32  44 SW13      30.16R
LEXINGTON      SUNNY     50  34  53 S9        30.17R
SAVANNAH       SUNNY     52  36  54 S10       30.20R
DYERSBURG      SUNNY    N/A N/A N/A S8G17     30.14S
UNION CITY     SUNNY     48  36  61 S10       30.12S
PARIS          SUNNY     48  34  57 S12       30.15R
HUNTINGDON     SUNNY     50  31  48 SW8       30.16R


...EASTERN ARKANSAS...

CITY           SKY/WX    TMP DP  RH WIND       PRES   REMARKS
JONESBORO      SUNNY     51  38  60 S15G23    30.09F
WEST MEMPHIS   SUNNY     52  38  58 S17       30.12F
BATESVILLE     MOSUNNY   54  36  50 SE12      30.04F
NEWPORT        MOSUNNY   54  37  52 S10       30.07F
WALNUT RIDGE   SUNNY     52  37  58 S17       30.06S
BLYTHEVILLE    SUNNY     52  36  54 S15G22    30.12S
SEARCY         MOSUNNY   55  36  48 S14G20    30.07F
STUTTGART      SUNNY     55  36  47 SE17G23   30.09F
PINE BLUFF     SUNNY     56  34  43 S12       30.08F
MONTICELLO     SUNNY     57  36  45 S9G17     30.10F


...NORTH MISSISSIPPI...

CITY           SKY/WX    TMP DP  RH WIND       PRES   REMARKS
TUPELO         SUNNY     52  36  54 S12       30.21S
OXFORD         SUNNY     52  32  46 S8        30.20S
OLIVE BRANCH   MOSUNNY   52  34  50 S14       30.15F
TUNICA         SUNNY     52  37  58 S17       30.15F
CLARKSDALE     SUNNY     54  39  58 SE20      30.15F
CORINTH        SUNNY     54  34  47 S9        30.19S
GRENADA        SUNNY     54  34  47 SW8       30.19
GREENWOOD      SUNNY     56  33  42 S9        30.18F
COLUMBUS       SUNNY     52  35  52 VRB6      30.24S
STARKVILLE     FAIR      52  36  54 CALM      30.22S
GOLDEN TRIANGL SUNNY     54  37  54 S5        30.22F


...SOUTHEAST MISSOURI...

CITY           SKY/WX    TMP DP  RH WIND       PRES   REMARKS
WEST PLAINS    MOSUNNY   49  28  44 S15G23    29.99S
POPLAR BLUFF   SUNNY     51  36  56 S10       30.07S
CAPE GIRARDEAU SUNNY     48  39  71 S14G24    30.09R


...NORTHWEST ALABAMA...

CITY           SKY/WX    TMP DP  RH WIND       PRES   REMARKS
MUSCLE SHOALS  SUNNY     53  34  48 SW9       30.22R


...MIDDLE TENNESSEE...

CITY           SKY/WX    TMP DP  RH WIND       PRES   REMARKS
NASHVILLE      SUNNY     49  34  56 S8        30.18R
CLARKSVILLE    SUNNY     50  33  52 SW7       30.15R
COLUMBIA       SUNNY     50  37  62 SW10      30.17R


...WESTERN KENTUCKY...

CITY           SKY/WX    TMP DP  RH WIND       PRES   REMARKS
PADUCAH        SUNNY     50  33  52 S8G17     30.11R
FORT CAMPBELL  SUNNY     50  33  53 SW7       30.15R


...CENTRAL ARKANSAS...

CITY           SKY/WX    TMP DP  RH WIND       PRES   REMARKS
LITTLE ROCK    MOSUNNY   58  29  33 S9        30.05F


SKY/WX REPORTED AS FAIR MEANS FEW OR NO CLOUDS BELOW
12 THOUSAND FEET.



USA.gov is the U.S. government's official web portal to all federal, state and local government web resources and services.